| time (UTC) | temp F | wind direction | speed knots | gust knots | rain 1hr in | rain 24hr in | rain mn in | humidity % | barometer mb |
| 20260903175056 | 67 | 242 | 4.3 | 12.2 | 0.00 | 0.00 | 0.00 | 80 | 1015.1 |
| 20260903174611 | 67 | 260 | 6.1 | 12.2 | 0.00 | 0.00 | 0.00 | 79 | 1015.0 |
| 20260903174059 | 67 | 232 | 4.3 | 12.2 | 0.00 | 0.00 | 0.00 | 79 | 1015.0 |
| 20260903173556 | 67 | 244 | 6.1 | 12.2 | 0.00 | 0.00 | 0.00 | 79 | 1015.1 |
| 20260903173120 | 67 | 242 | 5.2 | 11.3 | 0.00 | 0.00 | 0.00 | 79 | 1015.2 |
| 20260903172557 | 67 | 252 | 5.2 | 10.4 | 0.00 | 0.00 | 0.00 | 79 | 1015.2 |
| 20260903172056 | 67 | 220 | 5.2 | 12.2 | 0.00 | 0.00 | 0.00 | 78 | 1015.1 |
| 20260903171604 | 68 | 244 | 7.0 | 13.9 | 0.00 | 0.00 | 0.00 | 77 | 1015.1 |
| 20260903171058 | 68 | 222 | 7.0 | 13.9 | 0.00 | 0.00 | 0.00 | 77 | 1015.2 |
| 20260903170558 | 68 | 229 | 5.2 | 16.5 | 0.00 | 0.00 | 0.00 | 76 | 1015.1 |
| 20260903170112 | 68 | 252 | 8.7 | 16.5 | 0.00 | 0.00 | 0.00 | 76 | 1015.2 |
| 20260903165556 | 68 | 238 | 6.1 | 16.5 | 0.00 | 0.00 | 0.00 | 76 | 1015.1 |
| 20260903165056 | 68 | 263 | 6.1 | 17.4 | 0.00 | 0.00 | 0.00 | 76 | 1015.0 |
| 20260903164605 | 68 | 244 | 8.7 | 17.4 | 0.00 | 0.00 | 0.00 | 76 | 1015.1 |
| 20260903164056 | 68 | 230 | 8.7 | 14.8 | 0.00 | 0.00 | 0.00 | 76 | 1014.9 |
| 20260903163556 | 68 | 262 | 5.2 | 16.5 | 0.00 | 0.00 | 0.00 | 76 | 1015.1 |
| 20260903163114 | 68 | 230 | 8.7 | 16.5 | 0.00 | 0.00 | 0.00 | 76 | 1015.0 |
| 20260903162556 | 68 | 257 | 9.6 | 15.6 | 0.00 | 0.00 | 0.00 | 75 | 1015.0 |
| 20260903162055 | 69 | 248 | 9.6 | 16.5 | 0.00 | 0.00 | 0.00 | 75 | 1015.1 |
| 20260903161600 | 69 | 221 | 7.0 | 16.5 | 0.00 | 0.00 | 0.00 | 75 | 1015.0 |
| 20260903161056 | 69 | 230 | 8.7 | 16.5 | 0.00 | 0.00 | 0.00 | 74 | 1015.0 |
| 20260903160557 | 69 | 238 | 7.0 | 15.6 | 0.00 | 0.00 | 0.00 | 75 | 1015.1 |
| 20260903155557 | 69 | 254 | 6.1 | 17.4 | 0.00 | 0.00 | 0.00 | 75 | 1015.0 |
| 20260903155057 | 69 | 257 | 10.4 | 17.4 | 0.00 | 0.00 | 0.00 | 75 | 1015.1 |
| 20260903154607 | 69 | 257 | 7.8 | 15.6 | 0.00 | 0.00 | 0.00 | 74 | 1015.1 |
| 20260903154056 | 69 | 237 | 7.8 | 15.6 | 0.00 | 0.00 | 0.00 | 75 | 1015.1 |
| 20260903153556 | 69 | 275 | 7.8 | 16.5 | 0.00 | 0.00 | 0.00 | 74 | 1015.0 |
| 20260903153105 | 69 | 263 | 6.1 | 20.0 | 0.00 | 0.00 | 0.00 | 75 | 1014.9 |
| 20260903152558 | 69 | 240 | 10.4 | 20.0 | 0.00 | 0.00 | 0.00 | 74 | 1015.0 |
| 20260903152056 | 70 | 231 | 7.8 | 16.5 | 0.00 | 0.00 | 0.00 | 74 | 1015.0 |
| 20260903151602 | 70 | 253 | 10.4 | 16.5 | 0.00 | 0.00 | 0.00 | 72 | 1015.1 |
| 20260903151056 | 70 | 229 | 7.8 | 17.4 | 0.00 | 0.00 | 0.00 | 73 | 1015.1 |
| 20260903150556 | 70 | 229 | 8.7 | 20.0 | 0.00 | 0.00 | 0.00 | 72 | 1015.1 |
| 20260903150113 | 70 | 246 | 10.4 | 20.0 | 0.00 | 0.00 | 0.00 | 71 | 1015.0 |
| 20260903145556 | 69 | 239 | 8.7 | 16.5 | 0.00 | 0.00 | 0.00 | 72 | 1015.1 |
| 20260903145056 | 69 | 246 | 8.7 | 18.2 | 0.00 | 0.00 | 0.00 | 73 | 1015.1 |
| 20260903144604 | 69 | 258 | 8.7 | 18.2 | 0.00 | 0.00 | 0.00 | 73 | 1015.2 |
| 20260903144057 | 70 | 264 | 7.0 | 18.2 | 0.00 | 0.00 | 0.00 | 73 | 1015.1 |
| 20260903143556 | 69 | 265 | 9.6 | 18.2 | 0.00 | 0.00 | 0.00 | 74 | 1015.1 |
| 20260903143104 | 69 | 290 | 9.6 | 16.5 | 0.00 | 0.00 | 0.00 | 75 | 1015.2 |
| 20260903142556 | 69 | 247 | 8.7 | 13.9 | 0.00 | 0.00 | 0.00 | 75 | 1015.2 |
| 20260903142056 | 69 | 249 | 7.0 | 13.9 | 0.00 | 0.00 | 0.00 | 74 | 1015.3 |
| 20260903141604 | 69 | 229 | 7.8 | 15.6 | 0.00 | 0.00 | 0.00 | 75 | 1015.2 |
| 20260903141056 | 68 | 240 | 7.8 | 16.5 | 0.00 | 0.00 | 0.00 | 76 | 1015.2 |
| 20260903140556 | 68 | 252 | 7.8 | 20.0 | 0.00 | 0.00 | 0.00 | 77 | 1015.2 |
| 20260903140103 | 68 | 246 | 7.8 | 20.9 | 0.00 | 0.00 | 0.00 | 76 | 1015.2 |
| 20260903135555 | 68 | 211 | 11.3 | 20.9 | 0.00 | 0.00 | 0.00 | 76 | 1015.3 |
| 20260903135056 | 68 | 254 | 7.8 | 16.5 | 0.00 | 0.00 | 0.00 | 76 | 1015.3 |
| 20260903134603 | 68 | 263 | 8.7 | 19.1 | 0.00 | 0.00 | 0.00 | 76 | 1015.3 |
| 20260903134057 | 68 | 254 | 8.7 | 19.1 | 0.00 | 0.00 | 0.00 | 75 | 1015.3 |
| 20260903133600 | 68 | 261 | 9.6 | 20.0 | 0.00 | 0.00 | 0.00 | 75 | 1015.2 |
| 20260903133103 | 68 | 261 | 12.2 | 20.9 | 0.00 | 0.00 | 0.00 | 75 | 1015.2 |
| 20260903132557 | 68 | 227 | 8.7 | 20.9 | 0.00 | 0.00 | 0.00 | 75 | 1015.2 |
| 20260903132056 | 68 | 277 | 7.8 | 18.2 | 0.00 | 0.00 | 0.00 | 75 | 1015.2 |
| 20260903131605 | 68 | 234 | 10.4 | 18.2 | 0.00 | 0.00 | 0.00 | 74 | 1015.2 |
| 20260903131059 | 68 | 288 | 9.6 | 18.2 | 0.00 | 0.00 | 0.00 | 72 | 1015.2 |
| 20260903130558 | 68 | 276 | 8.7 | 18.2 | 0.00 | 0.00 | 0.00 | 72 | 1015.1 |
| 20260903130116 | 69 | 240 | 8.7 | 15.6 | 0.00 | 0.00 | 0.00 | 71 | 1015.1 |
| 20260903125557 | 69 | 266 | 9.6 | 14.8 | 0.00 | 0.00 | 0.00 | 70 | 1015.0 |
| 20260903125057 | 68 | 238 | 7.8 | 19.1 | 0.00 | 0.00 | 0.00 | 71 | 1015.2 |
| 20260903124618 | 68 | 246 | 8.7 | 19.1 | 0.00 | 0.00 | 0.00 | 72 | 1015.0 |
| 20260903124057 | 69 | 286 | 8.7 | 21.7 | 0.00 | 0.00 | 0.00 | 71 | 1015.1 |
| 20260903123557 | 69 | 250 | 10.4 | 21.7 | 0.00 | 0.00 | 0.00 | 69 | 1015.1 |
| 20260903123109 | 70 | 264 | 10.4 | 20.0 | 0.00 | 0.00 | 0.00 | 68 | 1015.0 |
| 20260903122600 | 70 | 238 | 7.8 | 20.9 | 0.00 | 0.00 | 0.00 | 67 | 1014.9 |
| 20260903122058 | 70 | 267 | 10.4 | 20.9 | 0.00 | 0.00 | 0.00 | 67 | 1014.9 |
| 20260903121605 | 71 | 252 | 8.7 | 20.0 | 0.00 | 0.00 | 0.00 | 66 | 1014.9 |
| 20260903121057 | 72 | 243 | 10.4 | 20.0 | 0.00 | 0.00 | 0.00 | 65 | 1014.8 |
| 20260903120559 | 72 | 273 | 8.7 | 17.4 | 0.00 | 0.00 | 0.00 | 65 | 1014.7 |
| 20260903120107 | 71 | 258 | 7.8 | 19.1 | 0.00 | 0.00 | 0.00 | 66 | 1014.6 |
| 20260903115557 | 71 | 277 | 9.6 | 19.1 | 0.00 | 0.00 | 0.00 | 66 | 1014.8 |
| 20260903115058 | 71 | 239 | 12.2 | 19.1 | 0.00 | 0.00 | 0.00 | 65 | 1015.0 |
| 20260903114608 | 71 | 249 | 11.3 | 18.2 | 0.00 | 0.00 | 0.00 | 65 | 1015.0 |
| 20260903114056 | 71 | 251 | 7.8 | 15.6 | 0.00 | 0.00 | 0.00 | 65 | 1014.9 |
| 20260903113556 | 71 | 255 | 8.7 | 15.6 | 0.00 | 0.00 | 0.00 | 64 | 1014.7 |
| 20260903113103 | 70 | 186 | 8.7 | 15.6 | 0.00 | 0.00 | 0.00 | 65 | 1014.9 |
| 20260903112600 | 70 | 241 | 7.8 | 15.6 | 0.00 | 0.00 | 0.00 | 64 | 1015.1 |
| 20260903112057 | 70 | 250 | 5.2 | 16.5 | 0.00 | 0.00 | 0.00 | 65 | 1015.0 |
| 20260903111625 | 69 | 293 | 10.4 | 16.5 | 0.00 | 0.00 | 0.00 | 66 | 1014.9 |
| 20260903111059 | 69 | 231 | 7.8 | 13.9 | 0.00 | 0.00 | 0.00 | 66 | 1015.0 |
| 20260903110557 | 69 | 243 | 7.8 | 17.4 | 0.00 | 0.00 | 0.00 | 65 | 1015.0 |
| 20260903110113 | 70 | 253 | 9.6 | 17.4 | 0.00 | 0.00 | 0.00 | 64 | 1015.1 |
| 20260903105558 | 70 | 236 | 9.6 | 13.9 | 0.00 | 0.00 | 0.00 | 63 | 1015.1 |
| 20260903105056 | 69 | 249 | 8.7 | 17.4 | 0.00 | 0.00 | 0.00 | 65 | 1015.1 |
| 20260903104632 | 69 | 267 | 7.8 | 17.4 | 0.00 | 0.00 | 0.00 | 66 | 1015.2 |
| 20260903104057 | 69 | 220 | 8.7 | 17.4 | 0.00 | 0.00 | 0.00 | 64 | 1015.3 |
| 20260903103559 | 69 | 244 | 7.8 | 17.4 | 0.00 | 0.00 | 0.00 | 64 | 1015.4 |
| 20260903103105 | 70 | 245 | 9.6 | 18.2 | 0.00 | 0.00 | 0.00 | 63 | 1015.5 |
| 20260903102559 | 70 | 240 | 7.0 | 21.7 | 0.00 | 0.00 | 0.00 | 63 | 1015.5 |
| 20260903102056 | 70 | 246 | 12.2 | 22.6 | 0.00 | 0.00 | 0.00 | 63 | 1015.3 |
| 20260903101601 | 71 | 231 | 11.3 | 22.6 | 0.00 | 0.00 | 0.00 | 62 | 1015.3 |
| 20260903101057 | 72 | 215 | 11.3 | 20.9 | 0.00 | 0.00 | 0.00 | 61 | 1015.2 |
| 20260903100557 | 69 | 273 | 10.4 | 18.2 | 0.00 | 0.00 | 0.00 | 64 | 1015.3 |
| 20260903100059 | 69 | 250 | 10.4 | 18.2 | 0.00 | 0.00 | 0.00 | 64 | 1015.4 |
| 20260903095557 | 69 | 263 | 7.8 | 15.6 | 0.00 | 0.00 | 0.00 | 64 | 1015.5 |
| 20260903095056 | 68 | 244 | 7.8 | 17.4 | 0.00 | 0.00 | 0.00 | 65 | 1015.5 |
| 20260903094610 | 68 | 235 | 7.0 | 17.4 | 0.00 | 0.00 | 0.00 | 66 | 1015.7 |
| 20260903094057 | 68 | 236 | 9.6 | 17.4 | 0.00 | 0.00 | 0.00 | 65 | 1015.6 |
| 20260903093558 | 68 | 252 | 7.8 | 16.5 | 0.00 | 0.00 | 0.00 | 65 | 1015.6 |
| 20260903093104 | 68 | 230 | 3.5 | 16.5 | 0.00 | 0.00 | 0.00 | 66 | 1015.6 |
| 20260903092557 | 67 | 235 | 5.2 | 13.0 | 0.00 | 0.00 | 0.00 | 67 | 1015.6 |
| 20260903092058 | 67 | 242 | 5.2 | 13.9 | 0.00 | 0.00 | 0.00 | 67 | 1015.7 |
| 20260903091612 | 67 | 236 | 5.2 | 17.4 | 0.00 | 0.00 | 0.00 | 67 | 1015.7 |
| 20260903091100 | 67 | 243 | 8.7 | 17.4 | 0.00 | 0.00 | 0.00 | 66 | 1015.7 |
| 20260903090558 | 67 | 230 | 8.7 | 17.4 | 0.00 | 0.00 | 0.00 | 66 | 1015.7 |
| 20260903090059 | 67 | 214 | 4.3 | 13.9 | 0.00 | 0.00 | 0.00 | 68 | 1015.7 |
| 20260903085557 | 67 | 222 | 6.1 | 13.9 | 0.00 | 0.00 | 0.00 | 69 | 1015.8 |
| 20260903085100 | 67 | 250 | 7.8 | 13.9 | 0.00 | 0.00 | 0.00 | 68 | 1015.7 |
| 20260903084558 | 66 | 257 | 6.1 | 13.0 | 0.00 | 0.00 | 0.00 | 68 | 1015.8 |
| 20260903084057 | 66 | 252 | 6.1 | 11.3 | 0.00 | 0.00 | 0.00 | 68 | 1015.8 |
| 20260903083558 | 66 | 235 | 6.1 | 16.5 | 0.00 | 0.00 | 0.00 | 68 | 1015.9 |
| 20260903083106 | 66 | 249 | 7.8 | 16.5 | 0.00 | 0.00 | 0.00 | 68 | 1016.0 |
| 20260903082557 | 66 | 227 | 7.0 | 13.0 | 0.00 | 0.00 | 0.00 | 68 | 1016.0 |
| 20260903082057 | 65 | 240 | 2.6 | 13.0 | 0.00 | 0.00 | 0.00 | 69 | 1016.0 |
| 20260903081602 | 65 | 213 | 5.2 | 13.0 | 0.00 | 0.00 | 0.00 | 69 | 1016.0 |
| 20260903081058 | 65 | 229 | 6.1 | 13.0 | 0.00 | 0.00 | 0.00 | 70 | 1016.0 |
| 20260903080559 | 65 | 232 | 4.3 | 13.0 | 0.00 | 0.00 | 0.00 | 70 | 1016.1 |
| 20260903075601 | 65 | 232 | 5.2 | 10.4 | 0.00 | 0.00 | 0.00 | 70 | 1016.3 |
| 20260903075058 | 65 | 169 | 5.2 | 12.2 | 0.00 | 0.00 | 0.00 | 70 | 1016.2 |
| 20260903074607 | 65 | 190 | 5.2 | 12.2 | 0.00 | 0.00 | 0.00 | 70 | 1016.3 |
| 20260903074057 | 64 | 218 | 4.3 | 12.2 | 0.00 | 0.00 | 0.00 | 70 | 1016.3 |
| 20260903073557 | 64 | 183 | 6.1 | 12.2 | 0.00 | 0.00 | 0.00 | 71 | 1016.3 |
| 20260903073112 | 64 | 208 | 5.2 | 11.3 | 0.00 | 0.00 | 0.00 | 70 | 1016.4 |
| 20260903072600 | 64 | 230 | 5.2 | 11.3 | 0.00 | 0.00 | 0.00 | 71 | 1016.3 |
| 20260903072057 | 64 | 237 | 5.2 | 11.3 | 0.00 | 0.00 | 0.00 | 71 | 1016.5 |
| 20260903071609 | 64 | 225 | 4.3 | 13.0 | 0.00 | 0.00 | 0.00 | 72 | 1016.5 |
| 20260903071056 | 64 | 234 | 4.3 | 13.0 | 0.00 | 0.00 | 0.00 | 71 | 1016.7 |
| 20260903070559 | 63 | 175 | 5.2 | 13.0 | 0.00 | 0.00 | 0.00 | 72 | 1016.8 |
| 20260903070109 | 63 | 229 | 2.6 | 9.6 | 0.00 | 0.00 | 0.00 | 72 | 1016.9 |
| 20260903065557 | 63 | 191 | 5.2 | 9.6 | 0.00 | 0.00 | 0.00 | 73 | 1016.8 |
| 20260903065057 | 63 | 225 | 2.6 | 7.0 | 0.00 | 0.00 | 0.00 | 74 | 1016.7 |
| 20260903064607 | 63 | 214 | 3.5 | 8.7 | 0.00 | 0.00 | 0.00 | 74 | 1016.6 |
| 20260903064056 | 62 | 211 | 3.5 | 8.7 | 0.00 | 0.00 | 0.00 | 74 | 1016.7 |
| 20260903063556 | 62 | 246 | 3.5 | 7.8 | 0.00 | 0.00 | 0.00 | 74 | 1016.7 |
| 20260903063105 | 62 | 221 | 3.5 | 7.8 | 0.00 | 0.00 | 0.00 | 76 | 1016.5 |
| 20260903062556 | 62 | 217 | 2.6 | 7.8 | 0.00 | 0.00 | 0.00 | 76 | 1016.5 |
| 20260903062058 | 61 | 230 | 2.6 | 7.8 | 0.00 | 0.00 | 0.00 | 77 | 1016.7 |
| 20260903061613 | 61 | 230 | 2.6 | 7.8 | 0.00 | 0.00 | 0.00 | 77 | 1016.7 |
| 20260903061057 | 61 | 211 | 1.7 | 6.1 | 0.00 | 0.00 | 0.00 | 78 | 1016.8 |
| 20260903060557 | 61 | 0 | 0.9 | 4.3 | 0.00 | 0.00 | 0.00 | 79 | 1016.6 |
| 20260903060109 | 61 | 0 | 0.9 | 4.3 | 0.00 | 0.00 | 0.00 | 78 | 1016.8 |
| 20260903055558 | 61 | 176 | 1.7 | 5.2 | 0.00 | 0.00 | 0.00 | 79 | 1016.8 |
| 20260903055057 | 61 | 175 | 1.7 | 5.2 | 0.00 | 0.00 | 0.00 | 79 | 1016.8 |
| 20260903054607 | 61 | 184 | 1.7 | 5.2 | 0.00 | 0.00 | 0.00 | 79 | 1017.0 |
| 20260903054057 | 61 | 0 | 0.9 | 6.1 | 0.00 | 0.00 | 0.00 | 79 | 1017.1 |
| 20260903053558 | 61 | 190 | 1.7 | 10.4 | 0.00 | 0.00 | 0.00 | 79 | 1017.3 |
| 20260903053114 | 61 | 241 | 3.5 | 11.3 | 0.00 | 0.00 | 0.00 | 78 | 1017.5 |
| 20260903052557 | 61 | 244 | 5.2 | 11.3 | 0.00 | 0.00 | 0.00 | 78 | 1017.6 |
| 20260903052059 | 60 | 240 | 4.3 | 9.6 | 0.00 | 0.00 | 0.00 | 77 | 1017.7 |
| 20260903051559 | 60 | 221 | 2.6 | 7.0 | 0.00 | 0.00 | 0.00 | 78 | 1017.6 |
| 20260903051058 | 60 | 208 | 2.6 | 6.1 | 0.00 | 0.00 | 0.00 | 79 | 1017.5 |
| 20260903050557 | 60 | 220 | 2.6 | 6.1 | 0.00 | 0.00 | 0.00 | 79 | 1017.5 |
| 20260903050107 | 60 | 221 | 2.6 | 5.2 | 0.00 | 0.00 | 0.00 | 80 | 1017.5 |
| 20260903045558 | 60 | 217 | 2.6 | 6.1 | 0.00 | 0.00 | 0.00 | 80 | 1017.6 |
| 20260903045057 | 60 | 219 | 1.7 | 6.1 | 0.00 | 0.00 | 0.00 | 80 | 1017.5 |
| 20260903044608 | 60 | 205 | 2.6 | 6.1 | 0.00 | 0.00 | 0.00 | 80 | 1017.5 |
| 20260903044058 | 60 | 211 | 2.6 | 6.1 | 0.00 | 0.00 | 0.00 | 80 | 1017.6 |
| 20260903043556 | 60 | 202 | 1.7 | 6.1 | 0.00 | 0.00 | 0.00 | 80 | 1017.6 |
| 20260903043103 | 59 | 201 | 1.7 | 6.1 | 0.00 | 0.00 | 0.00 | 81 | 1017.6 |
| 20260903042557 | 59 | 204 | 1.7 | 6.1 | 0.00 | 0.00 | 0.00 | 81 | 1017.6 |
| 20260903042057 | 59 | 217 | 1.7 | 6.1 | 0.00 | 0.00 | 0.00 | 81 | 1017.7 |
| 20260903041600 | 60 | 217 | 1.7 | 5.2 | 0.00 | 0.00 | 0.00 | 81 | 1017.6 |
| 20260903041057 | 60 | 217 | 2.6 | 5.2 | 0.00 | 0.00 | 0.00 | 81 | 1017.7 |
| 20260903040558 | 60 | 214 | 1.7 | 6.1 | 0.00 | 0.00 | 0.00 | 81 | 1017.7 |
| 20260903040114 | 60 | 207 | 2.6 | 7.0 | 0.00 | 0.00 | 0.00 | 81 | 1017.7 |
| 20260903035557 | 59 | 216 | 2.6 | 7.0 | 0.00 | 0.00 | 0.00 | 80 | 1017.7 |
| 20260903035057 | 59 | 223 | 2.6 | 7.0 | 0.00 | 0.00 | 0.00 | 80 | 1017.7 |
| 20260903034603 | 59 | 195 | 1.7 | 7.0 | 0.00 | 0.00 | 0.00 | 80 | 1017.6 |
| 20260903034057 | 59 | 214 | 3.5 | 7.0 | 0.00 | 0.00 | 0.00 | 80 | 1017.7 |
| 20260903033557 | 59 | 203 | 2.6 | 7.8 | 0.00 | 0.00 | 0.00 | 81 | 1017.8 |
| 20260903033100 | 59 | 201 | 3.5 | 7.8 | 0.00 | 0.00 | 0.00 | 81 | 1017.8 |
| 20260903032558 | 59 | 215 | 3.5 | 6.1 | 0.00 | 0.00 | 0.00 | 81 | 1017.8 |
| 20260903032057 | 58 | 222 | 2.6 | 6.1 | 0.00 | 0.00 | 0.00 | 82 | 1017.8 |
| 20260903031624 | 58 | 209 | 2.6 | 5.2 | 0.00 | 0.00 | 0.00 | 82 | 1017.9 |
| 20260903031057 | 58 | 209 | 1.7 | 5.2 | 0.00 | 0.00 | 0.00 | 82 | 1017.9 |
| 20260903030557 | 58 | 217 | 1.7 | 5.2 | 0.00 | 0.00 | 0.00 | 83 | 1017.9 |
| 20260903030116 | 58 | 196 | 1.7 | 4.3 | 0.00 | 0.00 | 0.00 | 83 | 1018.0 |
| 20260903025557 | 58 | 197 | 1.7 | 4.3 | 0.00 | 0.00 | 0.00 | 82 | 1018.1 |
| 20260903025057 | 58 | 196 | 0.9 | 4.3 | 0.00 | 0.00 | 0.00 | 82 | 1018.1 |
| 20260903024602 | 58 | 196 | 0.9 | 2.6 | 0.00 | 0.00 | 0.00 | 81 | 1018.0 |
| 20260903024056 | 58 | 0 | 0.9 | 2.6 | 0.00 | 0.00 | 0.00 | 81 | 1018.0 |
| 20260903023556 | 58 | 196 | 0.9 | 2.6 | 0.00 | 0.00 | 0.00 | 81 | 1018.1 |
| 20260903023104 | 58 | 0 | 0.9 | 2.6 | 0.00 | 0.00 | 0.00 | 81 | 1018.1 |
| 20260903022600 | 58 | 0 | 0.0 | 2.6 | 0.00 | 0.00 | 0.00 | 81 | 1018.3 |
| 20260903022057 | 58 | 196 | 0.9 | 3.5 | 0.00 | 0.00 | 0.00 | 81 | 1018.3 |
| 20260903021603 | 59 | 0 | 0.9 | 3.5 | 0.00 | 0.00 | 0.00 | 81 | 1018.3 |
| 20260903021058 | 59 | 196 | 0.9 | 3.5 | 0.00 | 0.00 | 0.00 | 81 | 1018.3 |
| 20260903020557 | 59 | 198 | 0.9 | 2.6 | 0.00 | 0.00 | 0.00 | 81 | 1018.4 |
| 20260903020103 | 59 | 0 | 0.0 | 2.6 | 0.00 | 0.00 | 0.00 | 81 | 1018.5 |
| 20260903015557 | 59 | 0 | 0.0 | 2.6 | 0.00 | 0.00 | 0.00 | 81 | 1018.6 |
| 20260903015057 | 59 | 198 | 0.0 | 2.6 | 0.00 | 0.00 | 0.00 | 81 | 1018.5 |
| 20260903014611 | 59 | 198 | 0.0 | 2.6 | 0.00 | 0.00 | 0.00 | 81 | 1018.6 |
| 20260903014100 | 59 | 198 | 0.0 | 2.6 | 0.00 | 0.00 | 0.00 | 81 | 1018.6 |
| 20260903013600 | 59 | 0 | 0.0 | 2.6 | 0.00 | 0.00 | 0.00 | 81 | 1018.6 |
| 20260903013102 | 59 | 0 | 0.9 | 3.5 | 0.00 | 0.00 | 0.00 | 81 | 1018.6 |
| 20260903012557 | 59 | 198 | 0.0 | 3.5 | 0.00 | 0.00 | 0.00 | 81 | 1018.6 |
| 20260903012056 | 59 | 198 | 0.9 | 3.5 | 0.00 | 0.00 | 0.00 | 81 | 1018.7 |
| 20260903011622 | 59 | 197 | 0.9 | 3.5 | 0.00 | 0.00 | 0.00 | 81 | 1018.8 |
| 20260903011058 | 59 | 198 | 0.9 | 2.6 | 0.00 | 0.00 | 0.00 | 81 | 1018.8 |
| 20260903010557 | 59 | 198 | 0.9 | 3.5 | 0.00 | 0.00 | 0.00 | 81 | 1018.8 |
| 20260903010119 | 59 | 0 | 0.9 | 3.5 | 0.00 | 0.00 | 0.00 | 81 | 1018.8 |
| 20260903005557 | 59 | 200 | 0.9 | 2.6 | 0.00 | 0.00 | 0.00 | 81 | 1018.7 |
| 20260903005057 | 59 | 0 | 0.0 | 2.6 | 0.00 | 0.00 | 0.00 | 81 | 1018.8 |
| 20260903004601 | 59 | 0 | 0.0 | 0.0 | 0.00 | 0.00 | 0.00 | 81 | 1018.7 |
| 20260903004057 | 58 | 0 | 0.0 | 2.6 | 0.00 | 0.00 | 0.00 | 81 | 1018.8 |
| 20260903003616 | 58 | 0 | 0.0 | 3.5 | 0.00 | 0.00 | 0.00 | 81 | 1018.8 |
| 20260903003105 | 58 | 203 | 0.9 | 3.5 | 0.00 | 0.00 | 0.00 | 81 | 1018.9 |
| 20260903002557 | 58 | 0 | 0.9 | 4.3 | 0.00 | 0.00 | 0.00 | 81 | 1019.0 |
| 20260903002058 | 58 | 203 | 0.9 | 4.3 | 0.00 | 0.00 | 0.00 | 80 | 1019.0 |
| 20260903001606 | 58 | 203 | 0.9 | 4.3 | 0.00 | 0.00 | 0.00 | 81 | 1019.1 |
| 20260903001100 | 58 | 204 | 1.7 | 4.3 | 0.00 | 0.00 | 0.00 | 80 | 1019.1 |
| 20260903000558 | 58 | 205 | 0.9 | 4.3 | 0.00 | 0.00 | 0.00 | 80 | 1019.1 |
| 20260903000103 | 59 | 205 | 1.7 | 4.3 | 0.00 | 0.00 | 0.00 | 80 | 1019.1 |
| 20260902235557 | 59 | 205 | 0.9 | 3.5 | 0.00 | 0.00 | 0.00 | 80 | 1019.2 |
| 20260902235057 | 59 | 205 | 1.7 | 3.5 | 0.00 | 0.00 | 0.00 | 80 | 1019.1 |
| 20260902234605 | 59 | 206 | 1.7 | 4.3 | 0.00 | 0.00 | 0.00 | 80 | 1019.2 |
| 20260902234058 | 59 | 206 | 1.7 | 5.2 | 0.00 | 0.00 | 0.00 | 80 | 1019.2 |
| 20260902233558 | 59 | 206 | 1.7 | 5.2 | 0.00 | 0.00 | 0.00 | 80 | 1019.3 |
| 20260902233102 | 59 | 207 | 1.7 | 5.2 | 0.00 | 0.00 | 0.00 | 80 | 1019.3 |
| 20260902232558 | 59 | 200 | 1.7 | 4.3 | 0.00 | 0.00 | 0.00 | 79 | 1019.3 |
| 20260902232058 | 59 | 202 | 1.7 | 5.2 | 0.00 | 0.00 | 0.00 | 79 | 1019.3 |
| 20260902231611 | 59 | 206 | 1.7 | 5.2 | 0.00 | 0.00 | 0.00 | 79 | 1019.3 |
| 20260902231058 | 59 | 207 | 1.7 | 5.2 | 0.00 | 0.00 | 0.00 | 79 | 1019.4 |
| 20260902230602 | 59 | 208 | 1.7 | 5.2 | 0.00 | 0.00 | 0.00 | 79 | 1019.4 |
| 20260902230110 | 59 | 212 | 1.7 | 5.2 | 0.00 | 0.00 | 0.00 | 79 | 1019.4 |
| 20260902225557 | 59 | 214 | 1.7 | 5.2 | 0.00 | 0.00 | 0.00 | 79 | 1019.5 |
| 20260902225104 | 59 | 215 | 1.7 | 3.5 | 0.00 | 0.00 | 0.00 | 79 | 1019.5 |
| 20260902224608 | 59 | 215 | 0.0 | 3.5 | 0.00 | 0.00 | 0.00 | 79 | 1019.5 |
| 20260902224102 | 59 | 215 | 0.9 | 3.5 | 0.00 | 0.00 | 0.00 | 79 | 1019.5 |
| 20260902223558 | 59 | 216 | 0.9 | 3.5 | 0.00 | 0.00 | 0.00 | 79 | 1019.4 |
| 20260902223102 | 59 | 217 | 0.9 | 4.3 | 0.00 | 0.00 | 0.00 | 79 | 1019.5 |
| 20260902222558 | 59 | 214 | 0.9 | 4.3 | 0.00 | 0.00 | 0.00 | 79 | 1019.6 |
| 20260902222057 | 59 | 215 | 1.7 | 4.3 | 0.00 | 0.00 | 0.00 | 79 | 1019.6 |
| 20260902221628 | 59 | 223 | 0.9 | 4.3 | 0.00 | 0.00 | 0.00 | 79 | 1019.7 |
| 20260902221059 | 59 | 224 | 1.7 | 4.3 | 0.00 | 0.00 | 0.00 | 80 | 1019.6 |
| 20260902220558 | 59 | 263 | 0.9 | 3.5 | 0.00 | 0.00 | 0.00 | 80 | 1019.6 |
| 20260902220110 | 59 | 263 | 1.7 | 3.5 | 0.00 | 0.00 | 0.00 | 80 | 1019.5 |
| 20260902215558 | 59 | 263 | 1.7 | 3.5 | 0.00 | 0.00 | 0.00 | 79 | 1019.5 |
| 20260902215058 | 59 | 263 | 0.9 | 3.5 | 0.00 | 0.00 | 0.00 | 78 | 1019.5 |
| 20260902214609 | 60 | 0 | 0.9 | 3.5 | 0.00 | 0.00 | 0.00 | 77 | 1019.6 |
| 20260902214100 | 60 | 263 | 0.9 | 3.5 | 0.00 | 0.00 | 0.00 | 76 | 1019.6 |
| 20260902213558 | 60 | 263 | 0.9 | 3.5 | 0.00 | 0.00 | 0.00 | 76 | 1019.6 |
| 20260902213100 | 61 | 0 | 0.0 | 3.5 | 0.00 | 0.00 | 0.00 | 76 | 1019.5 |
| 20260902212558 | 61 | 263 | 0.0 | 2.6 | 0.00 | 0.00 | 0.00 | 75 | 1019.5 |
| 20260902212057 | 61 | 263 | 0.0 | 2.6 | 0.00 | 0.00 | 0.00 | 75 | 1019.5 |
| 20260902211558 | 61 | 0 | 1.7 | 2.6 | 0.00 | 0.00 | 0.00 | 74 | 1019.5 |
| 20260902211056 | 61 | 263 | 0.0 | 1.7 | 0.00 | 0.00 | 0.00 | 74 | 1019.5 |
| 20260902210600 | 61 | 263 | 0.9 | 2.6 | 0.00 | 0.00 | 0.00 | 73 | 1019.5 |
| 20260902210103 | 61 | 263 | 0.9 | 3.5 | 0.00 | 0.00 | 0.00 | 73 | 1019.5 |
| 20260902205601 | 61 | 263 | 0.9 | 3.5 | 0.00 | 0.00 | 0.00 | 73 | 1019.5 |
| 20260902205056 | 61 | 263 | 1.7 | 5.2 | 0.00 | 0.00 | 0.00 | 73 | 1019.5 |
| 20260902204604 | 61 | 263 | 1.7 | 5.2 | 0.00 | 0.00 | 0.00 | 73 | 1019.6 |
| 20260902204056 | 61 | 265 | 1.7 | 5.2 | 0.00 | 0.00 | 0.00 | 73 | 1019.6 |
| 20260902203556 | 61 | 269 | 1.7 | 5.2 | 0.00 | 0.00 | 0.00 | 72 | 1019.6 |
| 20260902203058 | 62 | 270 | 2.6 | 6.1 | 0.00 | 0.00 | 0.00 | 72 | 1019.5 |
| 20260902202557 | 62 | 263 | 2.6 | 6.1 | 0.00 | 0.00 | 0.00 | 72 | 1019.5 |
| 20260902202057 | 62 | 273 | 3.5 | 7.0 | 0.00 | 0.00 | 0.00 | 72 | 1019.5 |
| 20260902201606 | 61 | 255 | 3.5 | 7.0 | 0.00 | 0.00 | 0.00 | 73 | 1019.5 |
| 20260902201056 | 60 | 265 | 3.5 | 7.0 | 0.00 | 0.00 | 0.00 | 74 | 1019.5 |
| 20260902200557 | 60 | 256 | 3.5 | 6.1 | 0.00 | 0.00 | 0.00 | 75 | 1019.6 |
| 20260902200105 | 60 | 259 | 2.6 | 6.1 | 0.00 | 0.00 | 0.00 | 74 | 1019.5 |
| 20260902195557 | 60 | 247 | 2.6 | 6.1 | 0.00 | 0.00 | 0.00 | 74 | 1019.4 |
| 20260902195056 | 60 | 248 | 2.6 | 6.1 | 0.00 | 0.00 | 0.00 | 74 | 1019.3 |
| 20260902194605 | 60 | 242 | 1.7 | 4.3 | 0.00 | 0.00 | 0.00 | 74 | 1019.3 |
| 20260902194056 | 61 | 240 | 1.7 | 4.3 | 0.00 | 0.00 | 0.00 | 75 | 1019.3 |
| 20260902193557 | 61 | 239 | 1.7 | 6.1 | 0.00 | 0.00 | 0.00 | 74 | 1019.3 |
| 20260902193108 | 61 | 236 | 2.6 | 6.1 | 0.00 | 0.00 | 0.00 | 74 | 1019.3 |
| 20260902192559 | 61 | 233 | 1.7 | 4.3 | 0.00 | 0.00 | 0.00 | 74 | 1019.2 |
| 20260902192056 | 61 | 230 | 1.7 | 4.3 | 0.00 | 0.00 | 0.00 | 74 | 1019.3 |
| 20260902191634 | 61 | 230 | 2.6 | 4.3 | 0.00 | 0.00 | 0.00 | 74 | 1019.2 |
| 20260902191059 | 61 | 230 | 1.7 | 3.5 | 0.00 | 0.00 | 0.00 | 73 | 1019.2 |
| 20260902190558 | 61 | 232 | 1.7 | 3.5 | 0.00 | 0.00 | 0.00 | 73 | 1019.1 |
| 20260902185558 | 61 | 236 | 0.9 | 3.5 | 0.00 | 0.00 | 0.00 | 74 | 1019.1 |
| 20260902185101 | 62 | 236 | 1.7 | 3.5 | 0.00 | 0.00 | 0.00 | 73 | 1019.1 |
| 20260902184558 | 62 | 236 | 1.7 | 3.5 | 0.00 | 0.00 | 0.00 | 73 | 1018.9 |
| 20260902184056 | 62 | 236 | 1.7 | 3.5 | 0.00 | 0.00 | 0.00 | 72 | 1018.9 |
| 20260902183559 | 63 | 236 | 1.7 | 3.5 | 0.00 | 0.00 | 0.00 | 71 | 1018.9 |
| 20260902183127 | 63 | 237 | 1.7 | 4.3 | 0.00 | 0.00 | 0.00 | 70 | 1018.8 |
| 20260902182555 | 64 | 237 | 1.7 | 4.3 | 0.00 | 0.00 | 0.00 | 69 | 1018.8 |
| 20260902182056 | 64 | 238 | 1.7 | 4.3 | 0.00 | 0.00 | 0.00 | 68 | 1018.7 |
| 20260902181612 | 64 | 241 | 2.6 | 4.3 | 0.00 | 0.00 | 0.00 | 67 | 1018.7 |
| 20260902181055 | 65 | 246 | 2.6 | 4.3 | 0.00 | 0.00 | 0.00 | 66 | 1018.7 |
| 20260902180556 | 65 | 248 | 1.7 | 4.3 | 0.00 | 0.00 | 0.00 | 66 | 1018.7 |
| 20260902180104 | 65 | 248 | 1.7 | 4.3 | 0.00 | 0.00 | 0.00 | 65 | 1018.7 |
| 20260902175557 | 66 | 248 | 1.7 | 4.3 | 0.00 | 0.00 | 0.00 | 64 | 1018.7 |